GW6029 Weather Reports


time (UTC)temp
F
wind
direction
speed
knots
gust
knots
rain 1hr
in
rain 24hr
in
rain mn
in
humidity
%
barometer
mb
20260510203529 82 67 0.0 1.7 0.00 0.00 0.00 74 1015.9
20260510203026 83 117 0.0 0.0 0.00 0.00 0.00 70 1015.8
20260510202525 82 24 1.7 3.5 0.00 0.00 0.00 70 1016.0
20260510202022 82 72 1.7 2.6 0.00 0.00 0.00 70 1015.8
20260510201519 83 62 0.9 2.6 0.00 0.00 0.00 69 1015.7
20260510201016 84 112 0.9 1.7 0.00 0.00 0.00 70 1015.7
20260510200511 84 95 0.0 2.6 0.00 0.00 0.00 71 1015.7
20260510200009 82 73 0.9 1.7 0.00 0.00 0.00 70 1015.7
20260510195507 82 65 0.0 0.9 0.00 0.00 0.00 74 1015.7
20260510195002 82 112 1.7 5.2 0.00 0.00 0.00 73 1015.8
20260510194458 82 199 2.6 3.5 0.00 0.00 0.00 72 1015.8
20260510193954 84 78 1.7 3.5 0.00 0.00 0.00 68 1015.9
20260510193449 83 205 0.9 1.7 0.00 0.00 0.00 74 1015.9
20260510192946 81 298 0.9 1.7 0.00 0.00 0.00 76 1015.8
20260510192445 81 158 0.0 1.7 0.00 0.00 0.00 75 1015.8
20260510191942 82 90 1.7 2.6 0.00 0.00 0.00 75 1015.8
20260510191438 83 144 0.0 1.7 0.00 0.00 0.00 74 1015.9
20260510190935 84 103 0.9 1.7 0.00 0.00 0.00 74 1016.0
20260510190433 83 301 1.7 1.7 0.00 0.00 0.00 74 1016.0
20260510185929 82 318 1.7 5.2 0.00 0.00 0.00 76 1016.2
20260510185427 81 292 1.7 2.6 0.00 0.00 0.00 75 1016.2
20260510184923 82 82 0.0 0.9 0.00 0.00 0.00 75 1016.3
20260510184421 83 333 3.5 5.2 0.00 0.00 0.00 74 1016.4
20260510183920 82 262 3.5 3.5 0.00 0.00 0.00 76 1016.4
20260510183417 83 225 2.6 5.2 0.00 0.00 0.00 73 1016.5
20260510182912 83 62 0.9 1.7 0.00 0.00 0.00 76 1016.6
20260510182409 82 75 1.7 3.5 0.00 0.00 0.00 75 1016.6
20260510181904 82 82 1.7 2.6 0.00 0.00 0.00 76 1016.7
20260510181402 82 289 0.9 5.2 0.00 0.00 0.00 77 1016.5
20260510180858 81 36 0.0 1.7 0.00 0.00 0.00 78 1016.7
20260510180355 81 267 3.5 5.2 0.00 0.00 0.00 75 1016.8
20260510175852 82 286 3.5 3.5 0.00 0.00 0.00 69 1016.8
20260510175348 82 275 1.7 3.5 0.00 0.00 0.00 69 1016.7
20260510174844 83 231 0.9 1.7 0.00 0.00 0.00 69 1016.9
20260510174342 84 86 0.9 1.7 0.00 0.00 0.00 69 1016.9
20260510173838 83 85 0.0 0.9 0.00 0.00 0.00 71 1016.9
20260510173334 83 15 0.0 0.9 0.00 0.00 0.00 69 1016.9
20260510172830 82 66 0.0 1.7 0.00 0.00 0.00 69 1017.0
20260510172327 82 0 0.9 0.9 0.00 0.00 0.00 71 1017.1
20260510171823 82 31 0.0 0.9 0.00 0.00 0.00 68 1016.9
20260510171320 81 9 0.0 0.9 0.00 0.00 0.00 71 1017.0
20260510170818 82 57 0.0 1.7 0.00 0.00 0.00 71 1017.1
20260510170314 82 261 0.9 0.9 0.00 0.00 0.00 72 1017.2
20260510165809 81 84 0.0 0.9 0.00 0.00 0.00 72 1017.1
20260510165307 83 288 1.7 2.6 0.00 0.00 0.00 68 1017.2
20260510164803 83 51 0.0 1.7 0.00 0.00 0.00 70 1017.2
20260510164300 82 124 0.0 0.9 0.00 0.00 0.00 71 1017.2
20260510163755 81 93 0.9 1.7 0.00 0.00 0.00 72 1017.2
20260510163251 81 333 0.9 1.7 0.00 0.00 0.00 71 1017.1
20260510162751 81 151 0.9 1.7 0.00 0.00 0.00 71 1017.1
20260510162248 82 257 0.0 0.9 0.00 0.00 0.00 72 1017.1
20260510161743 82 77 0.9 1.7 0.00 0.00 0.00 74 1017.1
20260510161239 81 64 0.9 0.9 0.00 0.00 0.00 74 1016.9
20260510160737 81 93 0.9 1.7 0.00 0.00 0.00 70 1017.0
20260510160232 82 98 0.9 1.7 0.00 0.00 0.00 75 1017.1
20260510155728 81 95 0.0 1.7 0.00 0.00 0.00 74 1017.0
20260510155224 80 162 0.0 0.9 0.00 0.00 0.00 75 1017.2
20260510154720 80 100 0.9 1.7 0.00 0.00 0.00 78 1017.2
20260510154216 80 162 0.0 0.9 0.00 0.00 0.00 78 1017.1
20260510153711 80 99 0.0 0.9 0.00 0.00 0.00 78 1017.1
20260510153208 78 98 0.9 0.9 0.00 0.00 0.00 81 1017.1
20260510152704 77 115 0.9 1.7 0.00 0.00 0.00 82 1017.0
20260510152200 77 87 0.0 1.7 0.00 0.00 0.00 82 1017.0
20260510151657 77 83 0.0 0.9 0.00 0.00 0.00 82 1017.0
20260510151156 78 123 0.9 1.7 0.00 0.00 0.00 81 1017.0
20260510150651 79 62 0.0 0.9 0.00 0.00 0.00 80 1017.0
20260510150146 80 89 0.9 1.7 0.00 0.00 0.00 77 1017.0
20260510145643 80 135 0.9 0.9 0.00 0.00 0.00 80 1017.2
20260510145140 80 97 0.0 0.9 0.00 0.00 0.00 83 1017.1
20260510144635 78 81 0.0 1.7 0.00 0.00 0.00 82 1017.1
20260510144132 77 48 0.9 1.7 0.00 0.00 0.00 83 1017.3
20260510143628 77 102 0.0 0.0 0.00 0.00 0.00 89 1017.1
20260510143124 76 73 0.0 0.9 0.00 0.00 0.00 91 1017.3
20260510142621 75 99 0.0 0.0 0.00 0.00 0.00 93 1017.2
20260510142118 75 70 0.0 0.9 0.00 0.00 0.00 95 1017.1
20260510141614 76 72 0.0 0.9 0.00 0.00 0.00 97 1017.3
20260510141113 74 108 0.9 1.7 0.00 0.00 0.00 99 1017.0
20260510140609 73 74 0.0 0.0 0.00 0.00 0.00 99 1017.2
20260510140108 72 64 0.9 0.9 0.00 0.00 0.00 99 1017.1
20260510135604 71 135 0.9 1.7 0.00 0.00 0.00 99 1017.0
20260510135100 72 82 0.0 0.9 0.00 0.00 0.00 99 1017.1
20260510134557 71 86 0.0 0.0 0.00 0.00 0.00 99 1017.1
20260510134054 71 83 0.0 0.0 0.00 0.00 0.00 99 1017.0
20260510133550 70 100 0.0 0.0 0.00 0.00 0.00 99 1017.1
20260510133046 71 81 0.9 1.7 0.00 0.00 0.00 99 1017.1
20260510132543 70 116 0.0 0.9 0.00 0.00 0.00 99 1017.0
20260510132040 70 84 0.0 0.0 0.00 0.00 0.00 99 1017.1
20260510131538 70 94 0.0 0.0 0.00 0.00 0.00 99 1017.1
20260510131034 69 84 0.0 0.0 0.00 0.00 0.00 99 1017.1
20260510130530 69 84 0.0 0.0 0.00 0.00 0.00 99 1017.0
20260510130028 69 99 0.0 0.0 0.00 0.00 0.00 99 1016.9
20260510125524 68 83 0.0 0.0 0.00 0.00 0.00 99 1016.7
20260510125021 68 110 0.9 0.9 0.00 0.00 0.00 99 1016.6
20260510124518 68 66 0.0 1.7 0.00 0.00 0.00 99 1016.6
20260510124015 68 11 0.9 0.9 0.00 0.00 0.00 99 1016.5
20260510123510 68 109 0.0 0.0 0.00 0.00 0.00 99 1016.4
20260510123006 68 100 0.0 0.0 0.00 0.00 0.00 99 1016.3
20260510122502 67 65 0.0 0.0 0.00 0.00 0.00 99 1016.3
20260510121958 67 97 0.0 0.0 0.00 0.00 0.00 99 1016.1
20260510121455 67 78 0.0 0.0 0.00 0.00 0.00 99 1016.0
20260510120953 66 78 0.0 0.0 0.00 0.00 0.00 99 1015.9
20260510120450 66 88 0.0 0.0 0.00 0.00 0.00 99 1015.9
20260510115945 66 96 0.0 0.0 0.00 0.00 0.00 99 1015.8
20260510115443 66 116 0.0 0.0 0.00 0.00 0.00 99 1015.9
20260510114939 66 105 0.0 0.0 0.00 0.00 0.00 99 1015.7
20260510114436 66 91 0.0 0.0 0.00 0.00 0.00 99 1015.5
20260510113931 65 89 0.0 0.0 0.00 0.00 0.00 99 1015.6
20260510113427 65 89 0.0 0.0 0.00 0.00 0.00 99 1015.4
20260510112925 65 89 0.0 0.0 0.00 0.00 0.00 99 1015.4
20260510112422 65 89 0.0 0.0 0.00 0.00 0.00 99 1015.4
20260510111918 65 89 0.0 0.0 0.00 0.00 0.00 99 1015.2
20260510111414 65 89 0.0 0.0 0.00 0.00 0.00 99 1015.3
20260510110910 65 89 0.0 0.0 0.00 0.00 0.00 99 1015.0
20260510110407 65 90 0.0 0.0 0.00 0.00 0.00 99 1015.1
20260510105903 65 64 0.0 0.0 0.00 0.00 0.00 99 1015.1
20260510105402 65 81 0.0 0.0 0.00 0.00 0.00 99 1015.0
20260510104858 65 81 0.0 0.0 0.00 0.00 0.00 99 1014.9
20260510104355 65 80 0.0 0.0 0.00 0.00 0.00 99 1015.0
20260510103852 65 80 0.0 0.0 0.00 0.00 0.00 99 1014.8
20260510103349 65 71 0.0 0.0 0.00 0.00 0.00 99 1014.7
20260510102845 65 51 0.0 0.0 0.00 0.00 0.00 99 1014.7
20260510102340 66 81 0.0 0.0 0.00 0.00 0.00 99 1014.6
20260510101838 66 81 0.0 0.0 0.00 0.00 0.00 99 1014.6
20260510101336 66 81 0.0 0.0 0.00 0.00 0.00 99 1014.4
20260510100832 66 81 0.0 0.0 0.00 0.00 0.00 99 1014.3
20260510100330 66 82 0.0 0.0 0.00 0.00 0.00 99 1014.6
20260510095826 66 82 0.0 0.0 0.00 0.00 0.00 99 1014.3
20260510095321 66 82 0.0 0.0 0.00 0.00 0.00 99 1014.3
20260510094820 66 82 0.0 0.0 0.00 0.00 0.00 99 1014.5
20260510094315 66 82 0.0 0.0 0.00 0.00 0.00 99 1014.2
20260510093812 66 82 0.0 0.0 0.00 0.00 0.00 99 1014.3
20260510093309 66 81 0.0 0.0 0.00 0.00 0.00 99 1014.0
20260510092805 66 80 0.0 0.0 0.00 0.00 0.00 99 1014.2
20260510092301 66 81 0.0 0.0 0.00 0.00 0.00 99 1013.9
20260510091756 66 81 0.0 0.0 0.00 0.00 0.00 99 1014.0
20260510091254 66 98 0.0 0.0 0.00 0.00 0.00 99 1013.9
20260510090750 66 24 0.0 0.0 0.00 0.00 0.00 99 1013.9
20260510090247 66 68 0.0 0.0 0.00 0.00 0.00 99 1013.7
20260510085743 66 64 0.0 0.0 0.00 0.00 0.00 99 1013.9
20260510085237 66 56 0.0 0.0 0.00 0.00 0.00 99 1013.9
20260510084733 66 64 0.0 0.0 0.00 0.00 0.00 99 1013.6
20260510084231 67 64 0.0 0.0 0.00 0.00 0.00 99 1013.5
20260510083727 67 62 0.0 0.0 0.00 0.00 0.00 99 1013.6
20260510083224 67 64 0.0 0.0 0.00 0.00 0.00 99 1013.5
20260510082720 67 98 0.0 0.0 0.00 0.00 0.00 99 1013.6
20260510082217 67 99 0.0 0.0 0.00 0.00 0.00 99 1013.3
20260510081716 67 99 0.0 0.0 0.00 0.00 0.00 99 1013.4
20260510081213 67 99 0.0 0.0 0.00 0.00 0.00 99 1013.2
20260510080713 67 88 0.0 0.0 0.00 0.00 0.00 99 1013.3
20260510080209 67 58 0.0 0.0 0.00 0.00 0.00 99 1013.2
20260510075706 67 58 0.0 0.0 0.00 0.00 0.00 99 1013.0
20260510075204 67 187 0.0 0.0 0.00 0.00 0.00 99 1013.1
20260510074700 67 63 0.0 0.0 0.00 0.00 0.00 99 1013.0
20260510074156 67 55 0.0 0.0 0.00 0.00 0.00 99 1012.9
20260510073653 67 59 0.0 0.0 0.00 0.00 0.00 99 1012.8
20260510073149 67 77 0.0 0.0 0.00 0.00 0.00 99 1013.0
20260510072645 67 77 0.0 0.0 0.00 0.00 0.00 99 1012.9
20260510072142 67 77 0.0 0.0 0.00 0.00 0.00 99 1013.0
20260510071638 67 68 0.0 0.0 0.00 0.00 0.00 99 1012.9
20260510071135 67 85 0.0 0.0 0.00 0.00 0.00 99 1013.0
20260510070633 67 82 0.0 0.0 0.00 0.00 0.00 99 1012.8
20260510070130 67 85 0.0 0.0 0.00 0.00 0.00 99 1012.8
20260510065626 67 84 0.0 0.0 0.00 0.00 0.00 99 1013.0
20260510065122 67 85 0.0 0.0 0.00 0.00 0.00 99 1013.0
20260510064618 67 106 0.0 0.0 0.00 0.00 0.00 99 1013.1
20260510064115 67 64 0.0 0.0 0.00 0.00 0.00 99 1013.1
20260510063612 67 64 0.0 0.0 0.00 0.00 0.00 99 1013.3
20260510063109 67 64 0.0 0.0 0.00 0.00 0.00 99 1013.2
20260510062605 67 62 0.0 0.0 0.00 0.00 0.00 99 1013.3
20260510062101 67 51 0.0 0.0 0.00 0.00 0.00 99 1013.4
20260510061557 67 51 0.0 0.0 0.00 0.00 0.00 99 1013.3
20260510061055 67 51 0.0 0.0 0.00 0.00 0.00 99 1013.2
20260510060550 67 51 0.0 0.0 0.00 0.00 0.00 99 1013.4
20260510060047 67 51 0.0 0.0 0.00 0.00 0.00 99 1013.7
20260510055543 67 51 0.0 0.0 0.00 0.00 0.00 99 1013.5
20260510055041 67 51 0.0 0.0 0.00 0.00 0.00 99 1013.8
20260510054537 67 51 0.0 0.0 0.00 0.00 0.00 99 1013.7
20260510054032 67 51 0.0 0.0 0.00 0.00 0.00 99 1013.8
20260510053527 67 51 0.0 0.0 0.00 0.00 0.00 99 1013.9
20260510053024 67 51 0.0 0.0 0.00 0.00 0.00 99 1013.7
20260510052520 67 55 0.0 0.0 0.00 0.00 0.00 99 1013.6
20260510052016 68 61 0.0 0.0 0.00 0.00 0.00 99 1013.9
20260510051512 68 61 0.0 0.0 0.00 0.00 0.00 99 1014.0
20260510051009 68 61 0.0 0.0 0.00 0.00 0.00 99 1013.9
20260510050506 68 61 0.0 0.0 0.00 0.00 0.00 99 1013.9
20260510050003 68 61 0.0 0.0 0.00 0.56 0.56 99 1013.9
20260510045500 68 61 0.0 0.0 0.00 0.56 0.56 99 1013.9
20260510044956 68 50 0.0 0.9 0.00 0.56 0.56 99 1013.9
20260510044453 68 286 1.7 1.7 0.00 0.56 0.56 99 1013.8
20260510043950 68 99 0.0 0.0 0.00 0.56 0.56 99 1013.5
20260510043445 68 85 0.0 0.0 0.00 0.56 0.56 99 1013.6
20260510042944 68 89 0.0 0.0 0.00 0.56 0.56 99 1013.8
20260510042440 68 81 0.0 0.0 0.00 0.56 0.56 99 1014.0
20260510041936 68 54 0.0 0.0 0.00 0.56 0.56 99 1014.3
20260510041433 68 48 0.0 0.0 0.00 0.56 0.56 99 1014.1
20260510040931 68 77 0.0 0.0 0.00 0.56 0.56 99 1013.9
20260510040427 68 77 0.0 0.0 0.07 0.56 0.56 99 1013.9
20260510035923 68 77 0.0 0.0 0.00 0.55 0.55 99 1014.3
20260510035419 69 77 0.0 0.0 0.00 0.55 0.55 99 1014.4
20260510034919 69 77 0.0 0.0 0.00 0.55 0.55 99 1014.4
20260510034418 69 77 0.0 0.0 0.00 0.55 0.55 98 1014.5
20260510033914 69 77 0.0 0.0 0.00 0.55 0.55 98 1014.4
20260510033410 69 77 0.0 0.0 0.00 0.55 0.55 98 1014.5
20260510032907 69 77 0.0 0.0 0.00 0.55 0.55 98 1014.3
20260510032404 69 57 0.0 0.0 0.00 0.55 0.55 98 1014.3
20260510031859 69 100 0.0 0.0 0.00 0.55 0.55 98 1014.3
20260510031355 69 78 0.0 0.0 0.00 0.55 0.55 98 1014.3
20260510030854 69 5 0.0 0.0 0.00 0.55 0.55 98 1014.2
20260510030351 69 91 0.0 0.0 0.00 0.55 0.55 98 1014.1
20260510025849 69 182 0.0 0.0 0.00 0.55 0.55 98 1014.2
20260510025346 69 69 0.0 0.0 0.00 0.55 0.55 98 1014.0
20260510024843 69 75 0.0 0.0 0.00 0.55 0.55 98 1013.9
20260510024340 69 85 0.0 0.0 0.00 0.55 0.55 98 1013.9
20260510023836 69 112 0.0 0.0 0.00 0.55 0.55 98 1013.8
20260510023332 69 91 0.0 0.0 0.00 0.55 0.55 98 1013.5
20260510022830 69 60 0.0 0.0 0.00 0.55 0.55 98 1013.6
20260510022328 69 63 0.0 0.0 0.00 0.55 0.55 98 1013.6
20260510021828 69 49 0.0 0.0 0.00 0.55 0.55 98 1013.8
20260510021326 69 55 0.0 0.0 0.00 0.55 0.55 98 1013.7
20260510020823 69 51 0.0 0.0 0.00 0.55 0.55 98 1013.5
20260510020323 69 31 0.0 0.0 0.00 0.55 0.55 98 1013.4
20260510015819 69 84 0.0 0.0 0.00 0.55 0.55 98 1013.3
20260510015315 69 84 0.0 0.0 0.00 0.55 0.55 98 1013.4
20260510014816 69 78 0.0 0.0 0.00 0.55 0.55 98 1013.4
20260510014313 69 78 0.0 0.0 0.00 0.55 0.55 98 1013.3
20260510013809 69 77 0.0 0.0 0.00 0.55 0.55 98 1013.4
20260510013306 69 95 0.0 0.0 0.00 0.55 0.55 98 1013.6
20260510012801 69 95 0.0 0.0 0.00 0.55 0.55 98 1013.7
20260510012301 69 95 0.0 0.0 0.00 0.55 0.55 98 1014.0
20260510011800 69 99 0.0 0.0 0.00 0.55 0.55 98 1014.0
20260510011256 69 99 0.0 0.0 0.00 0.55 0.55 98 1014.2
20260510010753 69 94 0.0 0.0 0.05 0.55 0.55 98 1014.0
20260510010250 69 93 0.0 0.0 0.00 0.54 0.54 98 1013.8
20260510005747 69 271 0.0 0.0 0.00 0.54 0.54 98 1014.3
20260510005243 69 65 0.0 0.9 0.00 0.54 0.54 98 1014.3
20260510004741 69 155 0.0 0.9 0.07 0.54 0.54 98 1014.2
20260510004238 69 296 0.9 0.9 0.07 0.54 0.54 98 1014.0
20260510003736 69 287 0.9 1.7 0.00 0.53 0.53 98 1014.1
20260510003232 69 269 1.7 1.7 0.00 0.53 0.53 98 1013.7
20260510002730 69 89 0.0 0.0 0.00 0.53 0.53 98 1012.8
20260510002228 69 80 0.0 0.0 0.00 0.53 0.53 98 1012.8
20260510001725 69 11 0.0 0.9 0.05 0.53 0.53 97 1012.7
20260510001224 69 165 0.9 0.9 0.05 0.53 0.53 97 1012.4
20260510000719 69 89 0.0 0.9 0.00 0.52 0.52 97 1012.2
20260510000218 69 145 0.0 1.7 0.00 0.52 0.52 97 1012.2
20260509235713 69 85 0.0 0.9 0.00 0.52 0.52 97 1011.8
20260509235210 69 94 0.9 1.7 0.00 0.52 0.52 97 1012.0
20260509234706 69 73 0.0 0.0 0.00 0.52 0.52 97 1012.2
20260509234203 69 79 0.0 0.0 0.00 0.52 0.52 97 1012.5
20260509233701 69 96 0.0 0.0 0.00 0.52 0.52 97 1012.4
20260509233159 69 85 0.0 0.0 0.07 0.52 0.52 96 1012.7
20260509232654 69 87 0.0 0.0 0.07 0.52 0.52 96 1012.8
20260509232151 69 81 0.0 0.0 0.00 0.51 0.51 96 1013.0
20260509231648 69 82 0.0 0.0 0.00 0.51 0.51 96 1012.6
20260509231145 70 81 0.0 0.9 0.00 0.51 0.51 96 1012.6
20260509230642 69 84 0.0 0.0 0.00 0.51 0.51 96 1012.8
20260509230139 69 95 0.0 0.0 0.00 0.51 0.51 96 1013.0
20260509225635 70 95 0.0 0.0 0.07 0.51 0.51 95 1013.1
20260509225131 70 95 0.0 0.0 0.07 0.51 0.51 95 1013.0
20260509224626 70 95 0.0 0.0 0.00 0.50 0.50 95 1013.2
20260509224123 70 95 0.0 0.0 0.05 0.50 0.50 95 1013.1
20260509223620 70 96 0.0 0.0 0.05 0.50 0.50 95 1012.9
20260509223118 70 85 0.0 0.0 0.00 0.49 0.49 95 1012.8
20260509222614 70 89 0.0 0.0 0.00 0.49 0.49 94 1012.9
20260509222110 70 99 0.0 0.0 0.07 0.49 0.49 94 1013.0
20260509221605 70 99 0.0 0.0 0.07 0.49 0.49 94 1012.9
20260509221102 70 95 0.0 0.0 0.00 0.48 0.48 94 1012.7
20260509220558 70 99 0.0 0.0 0.00 0.48 0.48 93 1012.7
20260509220054 71 99 0.0 0.0 0.00 0.48 0.48 93 1012.7
20260509215549 71 97 0.0 0.0 0.00 0.48 0.48 93 1012.7
20260509215047 71 71 0.0 0.0 0.00 0.48 0.48 93 1012.7
20260509214544 70 76 0.0 0.0 0.00 0.48 0.48 93 1012.5
20260509214041 70 81 0.0 0.9 0.00 0.48 0.48 93 1012.2
20260509213537 71 73 0.0 0.0 0.00 0.48 0.48 92 1012.2
20260509213034 71 87 0.0 0.0 0.00 0.48 0.48 92 1012.4
20260509212531 71 86 0.0 0.0 0.00 0.48 0.48 92 1012.4
20260509212028 71 82 0.0 0.9 0.00 0.48 0.48 91 1012.4
20260509211524 71 71 0.0 0.9 0.00 0.48 0.48 91 1013.0
20260509211021 71 86 0.0 0.9 0.00 0.48 0.48 91 1012.7
20260509210518 71 79 0.0 0.0 0.05 0.48 0.48 92 1012.7
20260509210014 71 315 0.9 0.9 0.05 0.48 0.48 92 1012.9
20260509205508 71 78 0.0 0.9 0.00 0.47 0.47 91 1012.7
20260509205004 71 84 0.0 0.0 0.00 0.47 0.47 90 1012.7
20260509204500 71 302 0.9 1.7 0.00 0.47 0.47 89 1012.9
20260509203957 72 163 0.9 1.7 0.00 0.47 0.47 88 1012.9